Total_Precipitation_Accumulation
0.09 0.09 0.15 0.47 1.68 2.92 3.54 3.32 2.67 2.12 1.91 1.36 1.23 1.06 1.19 1.21 0.69 0.14 0.04 0.03 0.02 0.00 0.00 0.00 0.00 0.00 0.00 0.00 0.00 0.00 0.00 0.00 0.00 0.00 0.00 0.00 0.00 0.00 0.00 0.00 0.00 0.00 0.00
0.05 0.11 0.11 0.20 0.94 2.14 3.30 2.96 2.91 2.57 2.68 1.91 1.42 1.34 1.04 1.24 0.64 0.32 0.13 0.04 0.03 0.01 0.00 0.00 0.00 0.00 0.00 0.00 0.00 0.00 0.00 0.00 0.00 0.00 0.00 0.00 0.00 0.00 0.00 0.00 0.00 0.00 0.00
0.05 0.06 0.10 0.14 0.37 0.96 2.90 3.49 2.73 2.56 2.66 2.65 2.04 1.19 0.95 1.20 0.65 0.31 0.31 0.24 0.14 0.06 0.02 0.02 0.00 0.00 0.00 0.00 0.00 0.01 0.01 0.01 0.01 0.01 0.00 0.00 0.00 0.00 0.00 0.00 0.00 0.00 0.00
0.05 0.03 0.07 0.05 0.10 0.37 1.57 3.77 3.12 2.26 2.58 2.58 2.67 2.00 1.25 1.20 0.75 0.42 0.47 0.28 0.14 0.06 0.08 0.09 0.06 0.05 0.03 0.08 0.06 0.06 0.05 0.02 0.03 0.01 0.00 0.00 0.00 0.00 0.00 0.00 0.00 0.00 0.00
0.03 0.03 0.03 0.04 0.08 0.28 0.91 2.27 2.71 3.39 3.22 3.69 3.37 3.20 2.65 1.60 0.86 0.60 0.54 0.43 0.26 0.19 0.27 0.34 0.37 0.29 0.33 0.32 0.28 0.23 0.14 0.11 0.10 0.07 0.03 0.02 0.00 0.00 0.02 0.01 0.01 0.00 0.01
0.02 0.03 0.04 0.08 0.12 0.26 0.45 1.48 2.02 2.75 3.68 4.48 5.09 3.89 2.91 2.26 1.58 0.95 0.75 0.76 0.63 0.55 0.55 0.51 0.51 0.57 0.85 0.72 0.53 0.44 0.32 0.27 0.25 0.19 0.14 0.10 0.08 0.08 0.10 0.09 0.05 0.07 0.05
0.03 0.04 0.03 0.11 0.22 0.26 0.37 0.49 1.21 1.74 2.57 3.59 5.01 4.62 3.77 2.17 1.50 1.21 1.09 1.00 0.97 0.98 0.95 0.79 0.67 0.60 0.49 0.44 0.42 0.49 0.53 0.49 0.44 0.38 0.41 0.45 0.46 0.50 0.45 0.40 0.34 0.26 0.19
0.09 0.08 0.08 0.13 0.24 0.32 0.41 0.38 0.40 0.69 1.25 1.99 3.24 3.28 2.69 2.26 2.15 1.58 0.95 0.60 0.54 0.63 0.82 0.64 0.41 0.42 0.47 0.45 0.43 0.44 0.47 0.54 0.57 0.63 0.74 0.78 0.74 0.80 0.87 0.81 0.67 0.48 0.31
0.19 0.14 0.20 0.25 0.41 0.33 0.33 0.24 0.17 0.22 0.49 0.91 1.52 2.13 2.45 1.59 1.53 1.79 1.77 0.73 0.48 0.50 0.53 0.48 0.34 0.25 0.23 0.21 0.22 0.26 0.31 0.37 0.39 0.35 0.33 0.35 0.35 0.36 0.40 0.48 0.47 0.47 0.27
0.39 0.27 0.33 0.32 0.43 0.32 0.23 0.20 0.17 0.17 0.22 0.40 0.58 0.94 1.64 1.83 1.55 1.17 1.35 1.24 0.43 0.27 0.34 0.37 0.27 0.19 0.18 0.20 0.18 0.15 0.10 0.10 0.12 0.15 0.14 0.12 0.14 0.23 0.29 0.32 0.34 0.41 0.42
0.57 0.64 0.62 0.54 0.39 0.38 0.22 0.16 0.15 0.12 0.12 0.14 0.20 0.38 0.69 1.40 1.25 1.28 0.90 1.03 0.89 0.41 0.25 0.23 0.24 0.20 0.14 0.13 0.16 0.16 0.13 0.08 0.05 0.05 0.04 0.04 0.02 0.02 0.03 0.06 0.10 0.14 0.16
1.22 1.12 0.76 0.66 0.66 0.46 0.19 0.15 0.17 0.11 0.07 0.07 0.09 0.12 0.16 0.78 0.60 0.91 0.87 0.78 0.83 0.79 0.37 0.23 0.19 0.17 0.15 0.12 0.14 0.09 0.11 0.08 0.06 0.03 0.02 0.01 0.00 0.00 0.00 0.00 0.00 0.00 0.00
1.46 1.23 0.75 0.83 0.73 0.59 0.36 0.18 0.13 0.07 0.06 0.06 0.05 0.05 0.07 0.18 0.34 0.54 0.66 0.68 0.94 0.80 0.56 0.30 0.19 0.12 0.11 0.11 0.07 0.07 0.04 0.03 0.02 0.01 0.00 0.00 0.00 0.00 0.00 0.00 0.00 0.00 0.00
1.25 1.29 0.91 0.66 0.58 0.50 0.43 0.28 0.22 0.13 0.14 0.09 0.04 0.04 0.04 0.04 0.06 0.17 0.42 0.38 0.67 0.76 0.55 0.51 0.27 0.15 0.09 0.08 0.07 0.06 0.04 0.02 0.01 0.00 0.00 0.00 0.00 0.01 0.02 0.02 0.00 0.00 0.01
1.22 1.33 1.03 0.69 0.45 0.33 0.29 0.22 0.13 0.06 0.04 0.04 0.04 0.03 0.02 0.04 0.02 0.03 0.09 0.22 0.38 0.64 0.56 0.62 0.49 0.26 0.19 0.14 0.09 0.06 0.03 0.03 0.02 0.02 0.01 0.00 0.01 0.01 0.00 0.00 0.00 0.00 0.01
0.61 0.62 0.56 0.41 0.18 0.08 0.04 0.02 0.02 0.03 0.04 0.04 0.03 0.02 0.02 0.03 0.02 0.01 0.01 0.05 0.10 0.16 0.37 0.34 0.52 0.38 0.16 0.14 0.13 0.11 0.06 0.04 0.04 0.03 0.01 0.00 0.00 0.00 0.00 0.00 0.00 0.01 0.01
0.10 0.12 0.17 0.13 0.10 0.06 0.03 0.03 0.02 0.01 0.02 0.01 0.02 0.02 0.02 0.02 0.02 0.02 0.01 0.02 0.03 0.04 0.04 0.09 0.10 0.16 0.19 0.16 0.06 0.07 0.06 0.07 0.08 0.04 0.00 0.00 0.00 0.00 0.00 0.00 0.01 0.01 0.03
0.00 0.00 0.00 0.00 0.01 0.01 0.00 0.00 0.00 0.00 0.00 0.00 0.00 0.01 0.02 0.02 0.02 0.03 0.03 0.03 0.04 0.02 0.01 0.02 0.02 0.03 0.08 0.11 0.07 0.06 0.03 0.03 0.03 0.01 0.00 0.00 0.00 0.00 0.00 0.00 0.00 0.00 0.01
0.00 0.00 0.00 0.00 0.00 0.00 0.00 0.00 0.00 0.00 0.00 0.00 0.00 0.00 0.00 0.00 0.00 0.00 0.00 0.00 0.00 0.01 0.00 0.01 0.01 0.00 0.01 0.02 0.02 0.03 0.00 0.00 0.00 0.00 0.00 0.00 0.00 0.01 0.01 0.00 0.00 0.00 0.00
0.00 0.00 0.00 0.00 0.00 0.00 0.00 0.00 0.00 0.00 0.00 0.00 0.00 0.00 0.01 0.01 0.02 0.02 0.02 0.02 0.04 0.03 0.01 0.00 0.00 0.00 0.00 0.00 0.00 0.00 0.00 0.00 0.00 0.00 0.00 0.00 0.00 0.00 0.00 0.00 0.00 0.00 0.00
0.00 0.00 0.00 0.00 0.00 0.00 0.00 0.00 0.00 0.00 0.00 0.01 0.01 0.00 0.00 0.00 0.00 0.00 0.00 0.00 0.00 0.00 0.01 0.01 0.02 0.02 0.02 0.01 0.01 0.01 0.00 0.00 0.00 0.00 0.00 0.00 0.01 0.00 0.00 0.00 0.00 0.00 0.00
0.00 0.00 0.00 0.00 0.00 0.00 0.00 0.00 0.00 0.00 0.00 0.00 0.00 0.00 0.00 0.00 0.00 0.00 0.00 0.00 0.00 0.00 0.00 0.00 0.00 0.00 0.01 0.02 0.01 0.01 0.01 0.01 0.00 0.00 0.00 0.00 0.01 0.01 0.00 0.00 0.00 0.00 0.00
0.00 0.00 0.00 0.00 0.00 0.00 0.00 0.00 0.00 0.00 0.00 0.00 0.00 0.00 0.00 0.00 0.00 0.00 0.00 0.00 0.00 0.00 0.00 0.00 0.00 0.00 0.00 0.00 0.00 0.00 0.00 0.00 0.01 0.01 0.01 0.01 0.00 0.00 0.00 0.00 0.00 0.00 0.00
0.00 0.00 0.00 0.00 0.00 0.00 0.00 0.00 0.00 0.00 0.00 0.00 0.00 0.00 0.00 0.00 0.00 0.00 0.00 0.00 0.00 0.00 0.00 0.00 0.00 0.00 0.00 0.00 0.00 0.00 0.01 0.01 0.00 0.00 0.00 0.00 0.00 0.00 0.00 0.00 0.00 0.00 0.00
0.00 0.00 0.00 0.00 0.00 0.00 0.00 0.00 0.00 0.00 0.00 0.00 0.00 0.00 0.00 0.00 0.00 0.00 0.00 0.00 0.00 0.00 0.00 0.00 0.00 0.00 0.00 0.01 0.02 0.00 0.00 0.00 0.00 0.00 0.00 0.00 0.00 0.00 0.00 0.00 0.00 0.00 0.00
0.01 0.00 0.00 0.00 0.00 0.00 0.00 0.00 0.00 0.00 0.00 0.00 0.01 0.01 0.00 0.00 0.00 0.00 0.00 0.00 0.00 0.00 0.00 0.00 0.00 0.00 0.00 0.01 0.01 0.01 0.00 0.00 0.01 0.00 0.00 0.00 0.00 0.00 0.00 0.00 0.00 0.00 0.00